Location: Unspecified
(43.4354°N, 0.0000°E)
Time: 03:14:15
(UTC+00:00)

Vanguard 1 Rocket - Pass Details

Date: 24 June 2019
Orbit: 651 x 4225 km, 34.3° (Epoch: 20 July)

Event Time Altitude Azimuth Distance (km) Brightness Sun altitude
Rises 20:00:43 0° 268° (W) 6,523 12.7 -3.2°
Reaches altitude 10° 20:06:03 10° 263° (W) 4,899 11.9 -4.0°
Maximum altitude 20:17:12 43° 198° (SSW) 1,876 8.9 -5.5°
Drops below altitude 10° 20:23:23 10° 128° (SE) 2,735 9.2 -6.4°
Enters shadow 20:23:54 - 126° (SE) 2,899 9.3 -6.5°
